Regional Weather Roundup
Issued by NWS Charleston, SC

Current Version | Previous Version | Graphics & Text | Print | Product List | Glossary On
Versions: 1 2 3 4 5 6 7 8 9 10 11 12 13 14 15 16 17 18 19 20 21 22 23 24 25 26 27 28 29 30 31 32 33 34 35 36 37 38 39 40 41 42 43 44 45 46 47 48 49 50
000
ASUS42 KCHS 280810
RWRCHS
REGIONAL WEATHER ROUNDUP
NATIONAL WEATHER SERVICE CHARLESTON SC
400 AM EDT MON JUL 28 2014

NOTE: "FAIR" INDICATES FEW OR NO CLOUDS BELOW 12,000 FEET WITH NO
SIGNIFICANT WEATHER AND/OR OBSTRUCTIONS TO VISIBILITY.

NOT ALL STATIONS ARE QUALITY CONTROLLED BY THE NATIONAL
WEATHER SERVICE. USE DATA WITH CAUTION...ESPECIALLY
DEWPOINT OBSERVATIONS.

SCZ027-030-031-034>040-042>050-280900-
...SOUTH CAROLINA...

CITY           SKY/WX    TMP DP  RH WIND       PRES   REMARKS
N CHARLESTON   MOCLDY    84  73  69 W13       29.87F HX  90
WATERFRONT PRK   N/A     84 N/A N/A SW8         N/A
FORT JOHNSON   NOT AVBL
MOUNT PLEASANT FAIR      84  77  79 SW7       29.87S HX  94
JOHNS ISLAND   SUNNY     82  72  69 CALM      29.88F
PINOPOLIS        N/A     82  73  74 SW9       29.79S
MONCKS CORNER    N/A     81  75  83 SW6       29.87S
SUMMERVILLE    NOT AVBL
BEAUFORT MCAS  MOCLDY    82  73  74 W9        29.90S
BEAUFORT ARPT  FAIR      82  73  74 SW10G16   29.89F
HILTON HEAD IS PTCLDY    82  75  78 SW8       29.91F
GEORGETOWN     NOT AVBL
WALTERBORO     NOT AVBL
ORANGEBURG     MOCLDY    79  73  82 SW6       29.87S
BARNWELL       FAIR      81  73  78 SW6       29.89S
AIKEN          FAIR      82  73  74 W12       29.92S
MANNING        FAIR      82  75  78 SW8       29.86R
KINGSTREE      NOT AVBL
COLUMBIA       CLOUDY    85  71  63 W12       29.84F HX  90
SUMTER         CLOUDY    82  74  76 W10       29.83S
FLORENCE       CLOUDY    81  73  76 SW7       29.82S
MYRTLE BEACH   PTCLDY    82  73  74 SW8       29.82F
N MYRTLE BEACH MOCLDY    84  73  69 SW13      29.81F HX  90

$$

GAZ063-065-086>088-099>101-113>116-118-119-134-136>141-150-280900-
...GEORGIA...

CITY           SKY/WX    TMP DP  RH WIND       PRES   REMARKS
SAVANNAH ARPT  MOCLDY    83  73  72 SW8       29.92S
HUNTER AAF     MOCLDY    81  74  81 SW8       29.90F
FORT STEWART   PTCLDY    81  74  80 SW8       29.92S
STATESBORO     NOT AVBL
SYLVANIA       MOSUNNY   80  76  89 SW3       29.92S
CLAXTON        FAIR      81  79  94 W3        29.93S
THOMSON        CLOUDY    81  78  91 SW3       29.94F
AUGUSTA-BUSH   MOCLDY    81  73  76 W6        29.88S
AUGUSTA-DANIEL MOCLDY    84  73  69 W8        29.90S HX  90
SWAINSBORO     FAIR      81  79  94 W3        29.94R
VIDALIA          N/A     81  77  89 SW7       29.94S
ALMA           CLEAR     79  75  87 SW6       29.95F
WAYCROSS       CLEAR     82  80  91 W6        29.96S HX  94
JESUP          NOT AVBL
BRUNSWICK      PTCLDY    81  75  83 W7        29.96S
SAINT SIMONS   PTCLDY    80  76  87 SW8       29.95S

$$

SCZ027-028-034-036>038-045-046-048>050-GAZ119-141-280900-
...LAKE AND SUPPLEMENTAL COASTAL OBSERVATIONS...

STATION/POSITION TIME  TEMP    WIND        PRES    WAVE   SWELL
                       AIR SEA DIR/SP/G            HT/PER HT/PER/DIR
                 (UTC) (F)     (DEG/KT/KT) (MB)    (FT/S) (FT/S/D)
UPR LAKE MARION  NOT AVBL
WINYAH BAY       0700   83     240/  8     1011.0S
LAKE MURRAY      0700   85     260/ 14/ 18 1010.2S
ACE BASIN NERRS  0700   83     250/  3     1012.0S
FORT PULASKI     0800   83     230/  8/ 13 1013.1F
SAPELO ISLAND    0700   83     240/ 12     1014.0S

$$

ANZ835-935-AMZ111-154-330-350-352-354-374-450-454-472-280900-
...C-MAN AND BUOY OBSERVATIONS...

STATION/POSITION TIME  TEMP    WIND        PRES    WAVE   SWELL
                       AIR SEA DIR/SP/G            HT/PER HT/PER/DIR
                 (UTC) (F)     (DEG/KT/KT) (MB)    (FT/S) (FT/S/D)
FOLLY BEACH CMAN 0700   84     240/  6/  8 1012.4F
BUOY 41004       0800   84 83  230/ 17/ 21 1010.9F   5/ 6   2/10
BUOY 41008       0700   84 85  250/ 19/ 21 1013.5R   3/ 4   2/130/ 8
5E ST. MARYS GA  0800      84                N/A     2/10
FRYING PAN BUOY  NOT AVBL
BUOY 41025       0800          VRB 21/ 25  1007.7F   5/ 5   2/110/10
CAPE LOOKOUT NC  0700   82     220/ 16/ 21 1008.5F
BUOY 41002       0730   81 80  240/ 17/ 21 1014.0F   6/ 6
BUOY 41010       0800   85 84  220/ 17/ 21 1015.7F   3/ 9   2/150/ 9
BUOY 41012       NOT AVBL
ST AUGUSTINE FL  0800   79     250/  5/  7 1015.9R
CAPERS NEARSHORE 0700   85     240/ 16/ 17   N/A
FRIPP NEARSHORE  NOT AVBL


$$



USA.gov is the U.S. government's official web portal to all federal, state and local government web resources and services.